Time,TemperatureF,DewpointF,PressureIn,WindDirection,WindDirectionDegrees,WindSpeedMPH,WindSpeedGustMPH,Humidity,HourlyPrecipIn,Conditions,Clouds,dailyrainin,SolarRadiationWatts/m^2,SoftwareType,DateUTC
2013-07-10 00:00:00,70.2,68.7,30.04,ESE,117,0.0,0.0,95,0.00,,---,0.00,0.00,VWS V14.01,2013-07-10 04:00:00,
2013-07-10 00:01:00,70.2,68.7,30.04,ESE,117,0.0,0.0,95,0.00,,---,0.00,0.00,VWS V14.01,2013-07-10 04:01:00,
2013-07-10 00:06:00,70.2,68.7,30.04,ESE,117,0.0,0.0,95,0.00,,---,0.00,0.00,VWS V14.01,2013-07-10 04:06:00,
2013-07-10 00:11:00,70.1,68.6,30.03,ESE,117,0.0,0.0,95,0.00,,---,0.00,0.00,VWS V14.01,2013-07-10 04:11:00,
2013-07-10 00:16:00,70.0,68.5,30.03,ESE,117,0.0,0.0,95,0.00,,---,0.00,0.00,VWS V14.01,2013-07-10 04:16:00,
2013-07-10 00:21:00,70.1,68.9,30.04,ESE,117,0.0,0.0,96,0.00,,---,0.00,0.00,VWS V14.01,2013-07-10 04:21:00,
2013-07-10 00:26:00,70.1,68.9,30.03,ESE,117,0.0,0.0,96,0.00,,---,0.00,0.00,VWS V14.01,2013-07-10 04:26:00,
2013-07-10 00:30:00,70.1,68.9,30.03,ESE,117,0.0,0.0,96,0.00,,---,0.00,0.00,VWS V14.01,2013-07-10 04:30:00,
2013-07-10 00:31:00,70.1,68.9,30.03,ESE,117,0.0,0.0,96,0.00,,---,0.00,0.00,VWS V14.01,2013-07-10 04:31:00,
2013-07-10 00:36:00,70.3,69.1,30.03,ESE,117,0.0,0.0,96,0.00,,---,0.00,0.00,VWS V14.01,2013-07-10 04:36:00,
2013-07-10 00:41:00,70.3,69.1,30.02,ESE,117,0.0,0.0,96,0.00,,---,0.00,0.00,VWS V14.01,2013-07-10 04:41:00,
2013-07-10 00:46:00,70.3,69.1,30.02,ESE,117,0.0,0.0,96,0.00,,---,0.00,0.00,VWS V14.01,2013-07-10 04:46:00,
2013-07-10 00:51:00,70.4,69.2,30.02,ESE,117,0.0,0.0,96,0.00,,---,0.00,0.00,VWS V14.01,2013-07-10 04:51:00,
2013-07-10 00:56:00,70.4,69.2,30.02,ESE,117,0.0,0.0,96,0.00,,---,0.00,0.00,VWS V14.01,2013-07-10 04:56:00,
2013-07-10 01:00:00,70.4,69.2,30.02,ESE,117,0.0,0.0,96,0.00,,---,0.00,0.00,VWS V14.01,2013-07-10 05:00:00,
2013-07-10 01:01:00,70.4,69.2,30.02,ESE,117,0.0,0.0,96,0.00,,---,0.00,0.00,VWS V14.01,2013-07-10 05:01:00,
2013-07-10 01:06:00,70.5,69.3,30.02,ESE,117,0.0,0.0,96,0.00,,---,0.00,0.00,VWS V14.01,2013-07-10 05:06:00,
2013-07-10 01:11:00,70.5,69.3,30.02,ESE,117,0.0,0.0,96,0.00,,---,0.00,0.00,VWS V14.01,2013-07-10 05:11:00,
2013-07-10 01:16:00,70.3,69.1,30.01,ESE,117,0.0,0.0,96,0.00,,---,0.00,0.00,VWS V14.01,2013-07-10 05:16:00,
2013-07-10 01:21:00,70.3,69.1,30.01,ESE,117,0.0,0.0,96,0.00,,---,0.00,0.00,VWS V14.01,2013-07-10 05:21:00,
2013-07-10 01:26:00,70.4,69.2,30.01,ESE,117,0.0,0.0,96,0.00,,---,0.00,0.00,VWS V14.01,2013-07-10 05:26:00,
2013-07-10 01:30:00,70.5,69.3,30.01,ESE,117,0.0,0.0,96,0.00,,---,0.00,0.00,VWS V14.01,2013-07-10 05:30:00,
2013-07-10 01:31:00,70.5,69.3,30.01,ESE,117,0.0,0.0,96,0.00,,---,0.00,0.00,VWS V14.01,2013-07-10 05:31:00,
2013-07-10 01:36:00,70.4,69.2,30.01,ESE,117,0.0,0.0,96,0.00,,---,0.00,0.00,VWS V14.01,2013-07-10 05:36:00,
2013-07-10 01:41:00,70.4,69.2,30.01,ESE,117,0.0,0.0,96,0.00,,---,0.00,0.00,VWS V14.01,2013-07-10 05:41:00,
2013-07-10 01:46:00,70.4,69.2,30.01,ESE,117,0.0,0.0,96,0.00,,---,0.00,0.00,VWS V14.01,2013-07-10 05:46:00,
2013-07-10 01:51:00,70.3,69.1,30.01,ESE,117,0.0,0.0,96,0.00,,---,0.00,0.00,VWS V14.01,2013-07-10 05:51:00,
2013-07-10 01:56:00,70.2,69.0,30.01,ESE,117,0.0,0.0,96,0.00,,---,0.00,0.00,VWS V14.01,2013-07-10 05:56:00,
2013-07-10 02:00:00,70.1,68.9,30.01,ESE,117,0.0,0.0,96,0.00,,---,0.00,0.00,VWS V14.01,2013-07-10 06:00:00,
2013-07-10 02:01:00,70.1,68.9,30.01,ESE,117,0.0,0.0,96,0.00,,---,0.00,0.00,VWS V14.01,2013-07-10 06:01:00,
2013-07-10 02:06:00,70.0,68.8,30.00,ESE,117,0.0,0.0,96,0.00,,---,0.00,0.00,VWS V14.01,2013-07-10 06:06:00,
2013-07-10 02:11:00,70.0,68.8,30.00,ESE,117,0.0,0.0,96,0.00,,---,0.00,0.00,VWS V14.01,2013-07-10 06:11:00,
2013-07-10 02:16:00,69.8,68.6,30.00,ESE,117,0.0,0.0,96,0.00,,---,0.00,0.00,VWS V14.01,2013-07-10 06:16:00,
2013-07-10 02:21:00,69.7,68.5,30.00,ESE,117,0.0,0.0,96,0.00,,---,0.00,0.00,VWS V14.01,2013-07-10 06:21:00,
2013-07-10 02:26:00,69.6,68.4,30.00,ESE,117,0.0,0.0,96,0.00,,---,0.00,0.00,VWS V14.01,2013-07-10 06:26:00,
2013-07-10 02:30:00,69.6,68.4,30.00,ESE,117,0.0,0.0,96,0.00,,---,0.00,0.00,VWS V14.01,2013-07-10 06:30:00,
2013-07-10 02:31:00,69.6,68.4,30.00,ESE,117,0.0,0.0,96,0.00,,---,0.00,0.00,VWS V14.01,2013-07-10 06:31:00,
2013-07-10 02:36:00,69.6,68.4,30.00,ESE,117,0.0,0.0,96,0.00,,---,0.00,0.00,VWS V14.01,2013-07-10 06:36:00,
2013-07-10 02:41:00,69.4,68.2,29.99,ESE,117,0.0,0.0,96,0.00,,---,0.00,0.00,VWS V14.01,2013-07-10 06:41:00,
2013-07-10 02:46:00,69.4,68.2,29.99,ESE,117,0.0,0.0,96,0.00,,---,0.00,0.00,VWS V14.01,2013-07-10 06:46:00,
2013-07-10 02:51:00,69.4,68.5,29.99,ESE,117,0.0,0.0,97,0.00,,---,0.00,0.00,VWS V14.01,2013-07-10 06:51:00,
2013-07-10 02:56:00,69.4,68.5,29.99,ESE,117,0.0,0.0,97,0.00,,---,0.00,0.00,VWS V14.01,2013-07-10 06:56:00,
2013-07-10 03:00:00,69.4,68.5,29.99,ESE,117,0.0,0.0,97,0.00,,---,0.00,0.00,VWS V14.01,2013-07-10 07:00:00,
2013-07-10 03:01:00,69.4,68.5,29.99,ESE,117,0.0,0.0,97,0.00,,---,0.00,0.00,VWS V14.01,2013-07-10 07:01:00,
2013-07-10 03:06:00,69.5,68.6,29.99,ESE,117,0.0,0.0,97,0.00,,---,0.00,0.00,VWS V14.01,2013-07-10 07:06:00,
2013-07-10 03:11:00,69.6,68.7,29.99,ESE,117,0.0,0.0,97,0.00,,---,0.00,0.00,VWS V14.01,2013-07-10 07:11:00,
2013-07-10 03:16:00,69.7,68.8,29.99,ESE,117,0.0,0.0,97,0.00,,---,0.00,0.00,VWS V14.01,2013-07-10 07:16:00,
2013-07-10 03:21:00,69.7,68.8,29.98,ESE,117,0.0,0.0,97,0.00,,---,0.00,0.00,VWS V14.01,2013-07-10 07:21:00,
2013-07-10 03:26:00,69.7,68.8,29.98,ESE,117,0.0,0.0,97,0.00,,---,0.00,0.00,VWS V14.01,2013-07-10 07:26:00,
2013-07-10 03:30:00,69.7,68.8,29.98,ESE,117,0.0,0.0,97,0.00,,---,0.00,0.00,VWS V14.01,2013-07-10 07:30:00,
2013-07-10 03:31:00,69.7,68.8,29.98,ESE,117,0.0,0.0,97,0.00,,---,0.00,0.00,VWS V14.01,2013-07-10 07:31:00,
2013-07-10 03:36:00,69.8,68.9,29.98,ESE,117,0.0,0.0,97,0.00,,---,0.00,0.00,VWS V14.01,2013-07-10 07:36:00,
2013-07-10 03:41:00,69.8,68.9,29.98,ESE,117,0.0,0.0,97,0.00,,---,0.00,0.00,VWS V14.01,2013-07-10 07:41:00,
2013-07-10 03:46:00,69.9,69.0,29.98,ESE,117,0.0,0.0,97,0.00,,---,0.00,0.00,VWS V14.01,2013-07-10 07:46:00,
2013-07-10 03:51:00,70.0,69.1,29.98,ESE,117,0.0,0.0,97,0.00,,---,0.00,0.00,VWS V14.01,2013-07-10 07:51:00,
2013-07-10 03:56:00,70.1,69.2,29.98,ESE,117,0.0,0.0,97,0.00,,---,0.00,0.00,VWS V14.01,2013-07-10 07:56:00,
2013-07-10 04:00:00,70.1,69.2,29.98,ESE,117,0.0,0.0,97,0.00,,---,0.00,0.00,VWS V14.01,2013-07-10 08:00:00,
2013-07-10 04:01:00,70.1,69.2,29.98,ESE,117,0.0,0.0,97,0.00,,---,0.00,0.00,VWS V14.01,2013-07-10 08:01:00,
2013-07-10 04:06:00,70.3,69.4,29.98,ESE,117,0.0,0.0,97,0.00,,---,0.00,0.00,VWS V14.01,2013-07-10 08:06:00,
2013-07-10 04:11:00,70.4,69.5,29.98,ESE,117,0.0,0.0,97,0.00,,---,0.00,0.00,VWS V14.01,2013-07-10 08:11:00,
2013-07-10 04:16:00,70.5,69.6,29.98,ESE,117,0.0,0.0,97,0.00,,---,0.00,0.00,VWS V14.01,2013-07-10 08:16:00,
2013-07-10 04:21:00,70.7,69.8,29.98,WNW,299,0.0,3.0,97,0.00,,---,0.00,0.00,VWS V14.01,2013-07-10 08:21:00,
2013-07-10 04:26:00,71.0,70.1,29.98,WNW,299,0.0,3.0,97,0.00,,---,0.00,0.00,VWS V14.01,2013-07-10 08:26:00,
2013-07-10 04:30:00,71.1,70.2,29.98,WNW,299,0.0,3.0,97,0.00,,---,0.00,0.00,VWS V14.01,2013-07-10 08:30:00,
2013-07-10 04:31:00,71.1,70.2,29.98,WNW,299,0.0,0.0,97,0.00,,---,0.00,0.00,VWS V14.01,2013-07-10 08:31:00,
2013-07-10 04:36:00,71.2,70.0,29.98,WNW,299,0.0,3.0,96,0.00,,---,0.00,0.00,VWS V14.01,2013-07-10 08:36:00,
2013-07-10 04:41:00,71.4,70.2,29.98,WNW,293,1.0,3.0,96,0.00,,---,0.00,0.00,VWS V14.01,2013-07-10 08:41:00,
2013-07-10 04:46:00,71.5,70.0,29.98,WNW,293,0.0,3.0,95,0.00,,---,0.00,0.00,VWS V14.01,2013-07-10 08:46:00,
2013-07-10 04:51:00,71.5,70.0,29.98,WNW,286,0.0,4.0,95,0.00,,---,0.00,0.00,VWS V14.01,2013-07-10 08:51:00,
2013-07-10 04:56:00,71.6,70.1,29.98,WNW,286,0.0,4.0,95,0.00,,---,0.00,0.00,VWS V14.01,2013-07-10 08:56:00,
2013-07-10 05:00:00,71.6,70.1,29.98,WNW,286,0.0,4.0,95,0.00,,---,0.00,0.00,VWS V14.01,2013-07-10 09:00:00,
2013-07-10 05:01:00,71.6,70.1,29.98,WNW,286,0.0,0.0,95,0.00,,---,0.00,0.00,VWS V14.01,2013-07-10 09:01:00,
2013-07-10 05:06:00,71.6,70.1,29.98,WNW,286,0.0,0.0,95,0.00,,---,0.00,0.00,VWS V14.01,2013-07-10 09:06:00,
2013-07-10 05:11:00,71.6,70.1,29.98,WNW,286,0.0,1.0,95,0.00,,---,0.00,0.00,VWS V14.01,2013-07-10 09:11:00,
2013-07-10 05:16:00,71.5,69.7,29.98,WNW,286,0.0,2.0,94,0.00,,---,0.00,0.00,VWS V14.01,2013-07-10 09:16:00,
2013-07-10 05:21:00,71.5,69.7,29.98,WNW,286,0.0,2.0,94,0.00,,---,0.00,0.00,VWS V14.01,2013-07-10 09:21:00,
2013-07-10 05:26:00,71.3,69.5,29.98,WNW,286,0.0,2.0,94,0.00,,---,0.00,0.00,VWS V14.01,2013-07-10 09:26:00,
2013-07-10 05:30:00,71.3,69.5,29.98,WNW,286,0.0,2.0,94,0.00,,---,0.00,0.00,VWS V14.01,2013-07-10 09:30:00,
2013-07-10 05:31:00,71.3,69.5,29.98,WNW,286,0.0,0.0,94,0.00,,---,0.00,0.00,VWS V14.01,2013-07-10 09:31:00,
2013-07-10 05:36:00,71.3,69.5,29.99,WNW,286,0.0,2.0,94,0.00,,---,0.00,0.00,VWS V14.01,2013-07-10 09:36:00,
2013-07-10 05:41:00,71.3,69.5,29.99,WNW,286,0.0,2.0,94,0.00,,---,0.00,5.00,VWS V14.01,2013-07-10 09:41:00,
2013-07-10 05:46:00,71.3,69.5,29.99,WNW,286,1.0,2.0,94,0.00,,---,0.00,9.00,VWS V14.01,2013-07-10 09:46:00,
2013-07-10 05:51:00,71.4,69.6,29.99,WSW,254,0.0,2.0,94,0.00,,---,0.00,12.00,VWS V14.01,2013-07-10 09:51:00,
2013-07-10 05:56:00,71.5,69.7,29.99,West,269,0.0,2.0,94,0.00,,---,0.00,14.00,VWS V14.01,2013-07-10 09:56:00,
2013-07-10 06:00:00,71.6,69.8,29.98,SSE,159,0.0,2.0,94,0.00,,---,0.00,23.00,VWS V14.01,2013-07-10 10:00:00,
2013-07-10 06:01:00,71.5,69.7,29.98,SSE,159,0.0,0.0,94,0.00,,---,0.00,26.00,VWS V14.01,2013-07-10 10:01:00,
2013-07-10 06:06:00,71.7,69.9,29.98,WNW,286,0.0,4.0,94,0.00,,---,0.00,42.00,VWS V14.01,2013-07-10 10:06:00,
2013-07-10 06:11:00,71.7,69.9,29.98,WNW,286,0.0,4.0,94,0.00,,---,0.00,47.00,VWS V14.01,2013-07-10 10:11:00,
2013-07-10 06:16:00,71.9,70.1,29.98,WNW,286,0.0,4.0,94,0.00,,---,0.00,35.00,VWS V14.01,2013-07-10 10:16:00,
2013-07-10 06:21:00,71.9,70.1,29.98,WNW,286,0.0,4.0,94,0.00,,---,0.00,35.00,VWS V14.01,2013-07-10 10:21:00,
2013-07-10 06:26:00,71.9,70.1,29.98,NW,318,0.0,4.0,94,0.00,,---,0.00,46.00,VWS V14.01,2013-07-10 10:26:00,
2013-07-10 06:30:00,71.9,70.1,29.98,West,279,0.0,4.0,94,0.00,,---,0.00,62.00,VWS V14.01,2013-07-10 10:30:00,
2013-07-10 06:31:00,71.9,70.1,29.98,West,279,0.0,0.0,94,0.00,,---,0.00,65.00,VWS V14.01,2013-07-10 10:31:00,
2013-07-10 06:36:00,72.0,70.2,29.98,West,279,0.0,1.0,94,0.00,,---,0.00,49.00,VWS V14.01,2013-07-10 10:36:00,
2013-07-10 06:41:00,72.1,70.3,29.98,West,279,1.0,2.0,94,0.00,,---,0.00,49.00,VWS V14.01,2013-07-10 10:41:00,
2013-07-10 06:52:00,72.1,70.3,29.98,West,279,0.0,2.0,94,0.00,,---,0.00,54.00,VWS V14.01,2013-07-10 10:52:00,
2013-07-10 06:57:00,72.4,70.6,29.98,West,261,0.0,2.0,94,0.00,,---,0.00,42.00,VWS V14.01,2013-07-10 10:57:00,
2013-07-10 07:00:00,72.5,70.4,29.98,West,261,0.0,2.0,93,0.00,,---,0.00,42.00,VWS V14.01,2013-07-10 11:00:00,
2013-07-10 07:02:00,72.6,70.5,29.98,West,261,0.0,0.0,93,0.00,,---,0.00,51.00,VWS V14.01,2013-07-10 11:02:00,
2013-07-10 07:07:00,72.7,70.6,29.98,West,261,0.0,2.0,93,0.00,,---,0.00,53.00,VWS V14.01,2013-07-10 11:07:00,
2013-07-10 07:12:00,72.8,70.7,29.98,West,261,0.0,2.0,93,0.00,,---,0.00,69.00,VWS V14.01,2013-07-10 11:12:00,
2013-07-10 07:17:00,72.9,70.8,29.97,West,261,0.0,2.0,93,0.00,,---,0.00,86.00,VWS V14.01,2013-07-10 11:17:00,
2013-07-10 07:22:00,73.0,70.9,29.97,West,261,0.0,2.0,93,0.00,,---,0.00,128.00,VWS V14.01,2013-07-10 11:22:00,
2013-07-10 07:30:00,71.9,70.1,29.98,West,279,0.0,4.0,94,0.00,,---,0.00,62.00,VWS V14.01,2013-07-10 11:30:00,
2013-07-10 07:35:00,73.1,71.0,29.97,East,97,0.0,3.0,93,0.00,,---,0.00,146.00,VWS V14.01,2013-07-10 11:35:00,
2013-07-10 07:40:00,73.5,71.0,29.97,ENE,70,0.0,3.0,92,0.00,,---,0.00,93.00,VWS V14.01,2013-07-10 11:40:00,
2013-07-10 07:45:00,73.6,71.1,29.97,West,268,0.0,3.0,92,0.00,,---,0.00,93.00,VWS V14.01,2013-07-10 11:45:00,
2013-07-10 07:50:00,73.6,71.1,29.97,NNE,15,0.0,3.0,92,0.00,,---,0.00,111.00,VWS V14.01,2013-07-10 11:50:00,
2013-07-10 07:55:00,73.7,71.2,29.97,West,264,1.0,5.0,92,0.00,,---,0.00,113.00,VWS V14.01,2013-07-10 11:55:00,
2013-07-10 08:00:00,73.7,71.2,29.97,West,265,0.0,5.0,92,0.00,,---,0.00,118.00,VWS V14.01,2013-07-10 12:00:00,
2013-07-10 08:05:00,73.8,71.3,29.96,NNW,331,0.0,3.0,92,0.00,,---,0.00,179.00,VWS V14.01,2013-07-10 12:05:00,
2013-07-10 08:10:00,73.9,71.1,29.97,West,273,0.0,4.0,91,0.00,,---,0.00,116.00,VWS V14.01,2013-07-10 12:10:00,
2013-07-10 08:15:00,74.0,71.2,29.97,West,273,0.0,4.0,91,0.00,,---,0.00,144.00,VWS V14.01,2013-07-10 12:15:00,
2013-07-10 08:20:00,74.2,71.4,29.96,SSE,167,0.0,4.0,91,0.00,,---,0.00,125.00,VWS V14.01,2013-07-10 12:20:00,
2013-07-10 08:25:00,74.4,71.6,29.96,SSE,168,0.0,4.0,91,0.00,,---,0.00,234.00,VWS V14.01,2013-07-10 12:25:00,
2013-07-10 08:30:00,74.7,71.6,29.96,NW,325,0.0,4.0,90,0.00,,---,0.00,294.00,VWS V14.01,2013-07-10 12:30:00,
2013-07-10 08:35:00,75.3,72.2,29.96,East,98,2.0,3.0,90,0.00,,---,0.00,232.00,VWS V14.01,2013-07-10 12:35:00,
2013-07-10 08:40:00,75.7,72.6,29.96,SE,144,0.0,5.0,90,0.00,,---,0.00,236.00,VWS V14.01,2013-07-10 12:40:00,
2013-07-10 08:45:00,75.9,72.4,29.96,West,274,1.0,5.0,89,0.00,,---,0.00,148.00,VWS V14.01,2013-07-10 12:45:00,
2013-07-10 08:50:00,75.8,72.3,29.96,ESE,109,0.0,5.0,89,0.00,,---,0.00,107.00,VWS V14.01,2013-07-10 12:50:00,
2013-07-10 08:55:00,75.7,72.2,29.96,WNW,282,0.0,5.0,89,0.00,,---,0.00,162.00,VWS V14.01,2013-07-10 12:55:00,
2013-07-10 09:00:00,75.8,72.7,29.96,WNW,282,0.0,5.0,90,0.00,,---,0.00,130.00,VWS V14.01,2013-07-10 13:00:00,
2013-07-10 09:05:00,75.8,72.3,29.96,NNE,29,0.0,2.0,89,0.00,,---,0.00,134.00,VWS V14.01,2013-07-10 13:05:00,
2013-07-10 09:10:00,75.8,72.3,29.96,NNE,30,0.0,4.0,89,0.00,,---,0.00,111.00,VWS V14.01,2013-07-10 13:10:00,
2013-07-10 09:15:00,75.8,72.7,29.96,NNE,31,0.0,4.0,90,0.00,,---,0.00,135.00,VWS V14.01,2013-07-10 13:15:00,
2013-07-10 09:20:00,75.8,72.7,29.95,NNW,345,0.0,4.0,90,0.00,,---,0.00,105.00,VWS V14.01,2013-07-10 13:20:00,
2013-07-10 09:25:00,75.9,72.8,29.95,ESE,119,3.0,4.0,90,0.00,,---,0.00,160.00,VWS V14.01,2013-07-10 13:25:00,
2013-07-10 09:30:00,76.0,72.5,29.95,East,89,1.0,5.0,89,0.00,,---,0.00,118.00,VWS V14.01,2013-07-10 13:30:00,
2013-07-10 09:35:00,76.1,72.6,29.95,NNE,22,0.0,4.0,89,0.00,,---,0.00,185.00,VWS V14.01,2013-07-10 13:35:00,
2013-07-10 09:40:00,76.2,72.7,29.95,West,262,0.0,4.0,89,0.00,,---,0.00,220.00,VWS V14.01,2013-07-10 13:40:00,
2013-07-10 09:45:00,76.4,73.2,29.95,NNW,348,0.0,5.0,90,0.00,,---,0.00,366.00,VWS V14.01,2013-07-10 13:45:00,
2013-07-10 09:50:00,76.7,73.2,29.94,South,184,2.0,5.0,89,0.00,,---,0.00,251.00,VWS V14.01,2013-07-10 13:50:00,
2013-07-10 09:55:00,76.9,73.4,29.94,ESE,116,0.0,5.0,89,0.00,,---,0.00,294.00,VWS V14.01,2013-07-10 13:55:00,
2013-07-10 10:00:00,77.1,73.6,29.94,ESE,106,3.0,5.0,89,0.00,,---,0.00,392.00,VWS V14.01,2013-07-10 14:00:00,
2013-07-10 10:05:00,77.8,74.0,29.94,WNW,283,0.0,3.0,88,0.00,,---,0.00,485.00,VWS V14.01,2013-07-10 14:05:00,
2013-07-10 10:10:00,78.1,73.9,29.94,NW,307,1.0,3.0,87,0.00,,---,0.00,276.00,VWS V14.01,2013-07-10 14:10:00,
2013-07-10 10:15:00,77.9,73.4,29.94,ENE,64,0.0,5.0,86,0.00,,---,0.00,151.00,VWS V14.01,2013-07-10 14:15:00,
2013-07-10 10:20:00,77.5,73.3,29.93,ESE,116,0.0,5.0,87,0.00,,---,0.00,151.00,VWS V14.01,2013-07-10 14:20:00,
2013-07-10 10:25:00,77.3,73.5,29.93,NNE,13,0.0,5.0,88,0.00,,---,0.00,125.00,VWS V14.01,2013-07-10 14:25:00,
2013-07-10 10:30:00,77.3,73.5,29.93,NNW,343,1.0,5.0,88,0.00,,---,0.00,134.00,VWS V14.01,2013-07-10 14:30:00,
2013-07-10 10:35:00,77.1,73.3,29.93,West,265,0.0,4.0,88,0.00,,---,0.00,83.00,VWS V14.01,2013-07-10 14:35:00,
2013-07-10 10:40:00,77.1,73.6,29.94,West,269,0.0,4.0,89,0.00,,---,0.00,128.00,VWS V14.01,2013-07-10 14:40:00,
2013-07-10 10:45:00,77.0,73.2,29.94,West,278,0.0,4.0,88,0.00,,---,0.00,139.00,VWS V14.01,2013-07-10 14:45:00,
2013-07-10 10:50:00,76.9,73.1,29.93,WNW,284,1.0,4.0,88,0.00,,---,0.00,181.00,VWS V14.01,2013-07-10 14:50:00,
2013-07-10 10:55:00,77.0,73.5,29.93,North,5,0.0,4.0,89,0.00,,---,0.00,248.00,VWS V14.01,2013-07-10 14:55:00,
2013-07-10 11:00:00,77.2,73.7,29.94,NE,47,0.0,4.0,89,0.00,,---,0.00,287.00,VWS V14.01,2013-07-10 15:00:00,
2013-07-10 11:05:00,77.5,73.7,29.93,West,267,0.0,1.0,88,0.00,,---,0.00,142.00,VWS V14.01,2013-07-10 15:05:00,
2013-07-10 11:10:00,77.4,73.6,29.93,West,269,0.0,1.0,88,0.00,,---,0.00,111.00,VWS V14.01,2013-07-10 15:10:00,
2013-07-10 11:15:00,77.5,73.7,29.93,NE,46,1.0,3.0,88,0.00,,---,0.00,232.00,VWS V14.01,2013-07-10 15:15:00,
2013-07-10 11:20:00,77.6,73.8,29.93,NW,304,0.0,3.0,88,0.00,,---,0.00,425.00,VWS V14.01,2013-07-10 15:20:00,
2013-07-10 11:25:00,78.1,74.3,29.93,NNW,348,0.0,6.0,88,0.00,,---,0.00,318.00,VWS V14.01,2013-07-10 15:25:00,
2013-07-10 11:30:00,78.4,74.2,29.92,East,84,0.0,6.0,87,0.00,,---,0.00,269.00,VWS V14.01,2013-07-10 15:30:00,
2013-07-10 11:35:00,78.4,73.9,29.92,WNW,283,2.0,4.0,86,0.00,,---,0.00,323.00,VWS V14.01,2013-07-10 15:35:00,
2013-07-10 11:40:00,78.4,73.9,29.92,West,279,0.0,4.0,86,0.00,,---,0.00,248.00,VWS V14.01,2013-07-10 15:40:00,
2013-07-10 11:45:00,78.5,74.3,29.92,West,279,0.0,4.0,87,0.00,,---,0.00,188.00,VWS V14.01,2013-07-10 15:45:00,
2013-07-10 11:50:00,78.5,74.0,29.92,West,281,0.0,4.0,86,0.00,,---,0.00,225.00,VWS V14.01,2013-07-10 15:50:00,
2013-07-10 11:55:00,78.5,73.6,29.91,South,183,0.0,6.0,85,0.00,,---,0.00,366.00,VWS V14.01,2013-07-10 15:55:00,
2013-07-10 12:00:00,78.9,74.4,29.92,NE,51,0.0,6.0,86,0.00,,---,0.00,563.00,VWS V14.01,2013-07-10 16:00:00,
2013-07-10 12:05:00,79.3,74.4,29.91,WSW,252,2.0,5.0,85,0.00,,---,0.00,383.00,VWS V14.01,2013-07-10 16:05:00,
2013-07-10 12:10:00,79.3,74.1,29.91,WNW,293,1.0,5.0,84,0.00,,---,0.00,292.00,VWS V14.01,2013-07-10 16:10:00,
2013-07-10 12:15:00,79.3,74.4,29.90,NW,311,1.0,5.0,85,0.00,,---,0.00,378.00,VWS V14.01,2013-07-10 16:15:00,
2013-07-10 12:20:00,79.5,74.9,29.90,West,273,1.0,5.0,86,0.00,,---,0.00,388.00,VWS V14.01,2013-07-10 16:20:00,
2013-07-10 12:25:00,80.2,75.6,29.90,East,90,0.0,5.0,86,0.00,,---,0.00,362.00,VWS V14.01,2013-07-10 16:25:00,
2013-07-10 12:30:00,80.6,75.3,29.90,WNW,300,0.0,5.0,84,0.00,,---,0.00,410.00,VWS V14.01,2013-07-10 16:30:00,
2013-07-10 12:35:00,80.7,74.7,29.89,West,272,0.0,6.0,82,0.00,,---,0.00,499.00,VWS V14.01,2013-07-10 16:35:00,
2013-07-10 12:40:00,80.9,75.3,29.89,West,270,0.0,6.0,83,0.00,,---,0.00,332.00,VWS V14.01,2013-07-10 16:40:00,
2013-07-10 12:45:00,81.1,75.4,29.89,ESE,120,0.0,6.0,83,0.00,,---,0.00,392.00,VWS V14.01,2013-07-10 16:45:00,
2013-07-10 12:50:00,81.6,76.3,29.89,West,271,0.0,7.0,84,0.00,,---,0.00,817.00,VWS V14.01,2013-07-10 16:50:00,
2013-07-10 12:55:00,82.3,75.5,29.89,West,279,0.0,7.0,80,0.00,,---,0.00,925.00,VWS V14.01,2013-07-10 16:55:00,
2013-07-10 13:00:00,82.5,75.7,29.88,ENE,71,0.0,7.0,80,0.00,,---,0.00,369.00,VWS V14.01,2013-07-10 17:00:00,
2013-07-10 13:05:00,82.7,76.3,29.88,NNE,29,0.0,3.0,81,0.00,,---,0.00,462.00,VWS V14.01,2013-07-10 17:05:00,
2013-07-10 13:10:00,83.0,75.8,29.88,West,278,0.0,4.0,79,0.00,,---,0.00,229.00,VWS V14.01,2013-07-10 17:10:00,
2013-07-10 13:15:00,82.9,76.1,29.88,East,90,0.0,5.0,80,0.00,,---,0.00,452.00,VWS V14.01,2013-07-10 17:15:00,
2013-07-10 13:20:00,83.1,75.5,29.87,WSW,246,0.0,7.0,78,0.00,,---,0.00,452.00,VWS V14.01,2013-07-10 17:20:00,
2013-07-10 13:25:00,83.0,75.4,29.87,West,259,4.0,7.0,78,0.00,,---,0.00,144.00,VWS V14.01,2013-07-10 17:25:00,
2013-07-10 13:30:00,80.7,75.4,29.90,WNW,300,0.0,5.0,84,0.00,,---,0.00,410.00,VWS V14.01,2013-07-10 17:30:00,
2013-07-10 13:36:00,82.7,75.2,29.87,WNW,297,3.0,7.0,78,0.00,,---,0.00,230.00,VWS V14.01,2013-07-10 17:36:00,
2013-07-10 13:41:00,80.9,73.8,29.87,ENE,68,0.0,8.0,79,0.00,,---,0.00,227.00,VWS V14.01,2013-07-10 17:41:00,
2013-07-10 13:46:00,80.8,73.7,29.87,WNW,285,0.0,8.0,79,0.00,,---,0.00,499.00,VWS V14.01,2013-07-10 17:46:00,
2013-07-10 13:51:00,80.7,73.6,29.87,WSW,248,0.0,8.0,79,0.00,,---,0.00,309.00,VWS V14.01,2013-07-10 17:51:00,
2013-07-10 13:56:00,80.3,73.6,29.86,West,280,0.0,8.0,80,0.00,,---,0.00,213.00,VWS V14.01,2013-07-10 17:56:00,
2013-07-10 14:00:00,80.1,74.1,29.87,WSW,247,0.0,8.0,82,0.00,,---,0.00,209.00,VWS V14.01,2013-07-10 18:00:00,
2013-07-10 14:01:00,80.1,74.1,29.87,WSW,257,0.0,1.0,82,0.00,,---,0.00,199.00,VWS V14.01,2013-07-10 18:01:00,
2013-07-10 14:06:00,79.8,73.8,29.87,West,272,0.0,5.0,82,0.00,,---,0.00,135.00,VWS V14.01,2013-07-10 18:06:00,
2013-07-10 14:11:00,79.7,74.8,29.87,NNW,333,0.0,5.0,85,0.00,,---,0.00,83.00,VWS V14.01,2013-07-10 18:11:00,
2013-07-10 14:16:00,79.1,74.6,29.87,West,261,0.0,5.0,86,0.01,,---,0.01,65.00,VWS V14.01,2013-07-10 18:16:00,
2013-07-10 14:21:00,78.6,74.4,29.87,West,280,2.0,5.0,87,0.01,,---,0.01,56.00,VWS V14.01,2013-07-10 18:21:00,
2013-07-10 14:26:00,78.1,74.6,29.87,WSW,252,0.0,5.0,89,0.02,,---,0.02,51.00,VWS V14.01,2013-07-10 18:26:00,
2013-07-10 14:30:00,77.7,74.5,29.87,NW,321,0.0,5.0,90,0.05,,---,0.05,60.00,VWS V14.01,2013-07-10 18:30:00,
2013-07-10 14:31:00,77.6,74.4,29.87,WNW,294,0.0,2.0,90,0.07,,---,0.07,63.00,VWS V14.01,2013-07-10 18:31:00,
2013-07-10 14:36:00,77.1,74.3,29.86,NW,315,0.0,2.0,91,0.14,,---,0.14,113.00,VWS V14.01,2013-07-10 18:36:00,
2013-07-10 14:41:00,76.8,74.3,29.86,NW,315,0.0,2.0,92,0.15,,---,0.15,206.00,VWS V14.01,2013-07-10 18:41:00,
2013-07-10 14:46:00,76.7,74.5,29.86,NW,315,0.0,2.0,93,0.15,,---,0.15,255.00,VWS V14.01,2013-07-10 18:46:00,
2013-07-10 14:51:00,76.9,75.1,29.86,NW,315,0.0,2.0,94,0.15,,---,0.15,585.00,VWS V14.01,2013-07-10 18:51:00,
2013-07-10 14:56:00,77.5,76.0,29.86,NW,319,0.0,2.0,95,0.15,,---,0.15,1007.00,VWS V14.01,2013-07-10 18:56:00,
2013-07-10 15:00:00,78.1,76.6,29.85,NW,319,0.0,3.0,95,0.15,,---,0.15,626.00,VWS V14.01,2013-07-10 19:00:00,
2013-07-10 15:01:00,78.1,76.2,29.85,West,270,0.0,1.0,94,0.15,,---,0.15,689.00,VWS V14.01,2013-07-10 19:01:00,
2013-07-10 15:06:00,78.2,76.3,29.85,WNW,294,0.0,3.0,94,0.15,,---,0.15,476.00,VWS V14.01,2013-07-10 19:06:00,
2013-07-10 15:11:00,78.3,76.1,29.85,WNW,294,0.0,3.0,93,0.15,,---,0.15,550.00,VWS V14.01,2013-07-10 19:11:00,
2013-07-10 15:16:00,78.5,76.6,29.84,WSW,255,0.0,4.0,94,0.15,,---,0.15,431.00,VWS V14.01,2013-07-10 19:16:00,
2013-07-10 15:21:00,78.4,75.9,29.85,WNW,292,0.0,6.0,92,0.15,,---,0.15,441.00,VWS V14.01,2013-07-10 19:21:00,
2013-07-10 15:26:00,79.0,77.1,29.84,WNW,284,1.0,6.0,94,0.15,,---,0.15,1013.00,VWS V14.01,2013-07-10 19:26:00,
2013-07-10 15:30:00,79.3,76.8,29.84,West,277,0.0,6.0,92,0.15,,---,0.15,654.00,VWS V14.01,2013-07-10 19:30:00,
2013-07-10 15:31:00,79.3,76.8,29.84,NW,314,0.0,3.0,92,0.10,,---,0.15,654.00,VWS V14.01,2013-07-10 19:31:00,
2013-07-10 15:36:00,79.2,76.0,29.84,WNW,297,0.0,6.0,90,0.10,,---,0.15,302.00,VWS V14.01,2013-07-10 19:36:00,
2013-07-10 15:41:00,79.3,76.4,29.84,SW,222,2.0,6.0,91,0.10,,---,0.15,471.00,VWS V14.01,2013-07-10 19:41:00,
2013-07-10 15:46:00,79.3,75.8,29.83,WNW,285,0.0,6.0,89,0.10,,---,0.15,186.00,VWS V14.01,2013-07-10 19:46:00,
2013-07-10 15:51:00,79.1,75.6,29.83,WNW,285,0.0,6.0,89,0.10,,---,0.15,207.00,VWS V14.01,2013-07-10 19:51:00,
2013-07-10 15:56:00,79.0,75.5,29.83,WNW,285,0.0,6.0,89,0.10,,---,0.15,726.00,VWS V14.01,2013-07-10 19:56:00,
2013-07-10 16:00:00,79.1,75.2,29.83,NW,321,0.0,6.0,88,0.10,,---,0.15,334.00,VWS V14.01,2013-07-10 20:00:00,
2013-07-10 16:01:00,79.1,75.2,29.83,NW,321,0.0,0.0,88,0.00,,---,0.15,301.00,VWS V14.01,2013-07-10 20:01:00,
2013-07-10 16:06:00,79.3,75.4,29.84,South,171,1.0,1.0,88,0.00,,---,0.15,269.00,VWS V14.01,2013-07-10 20:06:00,
2013-07-10 16:11:00,79.2,75.7,29.84,SSE,168,0.0,2.0,89,0.00,,---,0.15,376.00,VWS V14.01,2013-07-10 20:11:00,
2013-07-10 16:16:00,79.3,75.1,29.84,WNW,292,0.0,3.0,87,0.00,,---,0.15,237.00,VWS V14.01,2013-07-10 20:16:00,
2013-07-10 16:21:00,79.3,75.1,29.84,WNW,292,0.0,3.0,87,0.00,,---,0.15,207.00,VWS V14.01,2013-07-10 20:21:00,
2013-07-10 16:26:00,79.3,75.4,29.84,WNW,292,0.0,3.0,88,0.00,,---,0.15,206.00,VWS V14.01,2013-07-10 20:26:00,
2013-07-10 16:30:00,79.3,75.4,29.83,WNW,292,0.0,3.0,88,0.00,,---,0.15,192.00,VWS V14.01,2013-07-10 20:30:00,
2013-07-10 16:31:00,79.3,75.4,29.83,WNW,292,0.0,0.0,88,0.00,,---,0.15,193.00,VWS V14.01,2013-07-10 20:31:00,
2013-07-10 16:36:00,79.1,74.9,29.83,WNW,293,1.0,3.0,87,0.00,,---,0.15,227.00,VWS V14.01,2013-07-10 20:36:00,
2013-07-10 16:41:00,79.0,75.2,29.83,WNW,293,0.0,3.0,88,0.00,,---,0.15,188.00,VWS V14.01,2013-07-10 20:41:00,
2013-07-10 16:46:00,79.0,75.2,29.83,WNW,293,0.0,3.0,88,0.00,,---,0.15,167.00,VWS V14.01,2013-07-10 20:46:00,
2013-07-10 16:51:00,79.0,75.5,29.83,WNW,294,0.0,3.0,89,0.00,,---,0.15,193.00,VWS V14.01,2013-07-10 20:51:00,
2013-07-10 16:56:00,78.9,75.4,29.83,West,261,0.0,4.0,89,0.00,,---,0.15,178.00,VWS V14.01,2013-07-10 20:56:00,
2013-07-10 17:00:00,78.8,75.3,29.83,West,261,1.0,4.0,89,0.00,,---,0.15,171.00,VWS V14.01,2013-07-10 21:00:00,
2013-07-10 17:01:00,78.8,74.9,29.82,NW,306,3.0,4.0,88,0.00,,---,0.15,171.00,VWS V14.01,2013-07-10 21:01:00,
2013-07-10 17:06:00,78.8,75.3,29.82,WSW,248,2.0,5.0,89,0.00,,---,0.15,169.00,VWS V14.01,2013-07-10 21:06:00,
2013-07-10 17:11:00,78.9,75.7,29.82,WNW,301,0.0,5.0,90,0.00,,---,0.15,190.00,VWS V14.01,2013-07-10 21:11:00,
2013-07-10 17:16:00,78.8,75.3,29.82,WNW,301,0.0,5.0,89,0.00,,---,0.15,204.00,VWS V14.01,2013-07-10 21:16:00,
2013-07-10 17:21:00,78.9,75.4,29.82,WNW,301,0.0,5.0,89,0.00,,---,0.15,174.00,VWS V14.01,2013-07-10 21:21:00,
2013-07-10 17:26:00,79.0,75.5,29.82,WNW,301,0.0,5.0,89,0.00,,---,0.15,151.00,VWS V14.01,2013-07-10 21:26:00,
2013-07-10 17:30:00,78.9,75.4,29.81,WNW,301,0.0,5.0,89,0.00,,---,0.15,125.00,VWS V14.01,2013-07-10 21:30:00,
2013-07-10 17:31:00,78.9,75.4,29.81,WNW,301,0.0,0.0,89,0.00,,---,0.15,118.00,VWS V14.01,2013-07-10 21:31:00,
2013-07-10 17:36:00,78.9,75.4,29.81,WNW,301,0.0,0.0,89,0.00,,---,0.15,105.00,VWS V14.01,2013-07-10 21:36:00,
2013-07-10 17:41:00,78.9,75.7,29.81,WNW,301,0.0,2.0,90,0.00,,---,0.15,118.00,VWS V14.01,2013-07-10 21:41:00,
2013-07-10 17:46:00,78.9,75.7,29.81,WNW,301,0.0,2.0,90,0.00,,---,0.15,97.00,VWS V14.01,2013-07-10 21:46:00,
2013-07-10 17:51:00,78.9,75.7,29.81,WNW,301,0.0,2.0,90,0.00,,---,0.15,77.00,VWS V14.01,2013-07-10 21:51:00,
2013-07-10 17:56:00,78.8,75.6,29.81,WNW,301,0.0,2.0,90,0.00,,---,0.15,62.00,VWS V14.01,2013-07-10 21:56:00,
2013-07-10 18:00:00,78.7,75.5,29.81,WNW,301,0.0,2.0,90,0.00,,---,0.15,70.00,VWS V14.01,2013-07-10 22:00:00,
2013-07-10 18:01:00,78.7,75.5,29.81,WNW,301,0.0,0.0,90,0.00,,---,0.15,69.00,VWS V14.01,2013-07-10 22:01:00,
2013-07-10 18:06:00,78.6,75.4,29.81,WNW,301,0.0,0.0,90,0.00,,---,0.15,76.00,VWS V14.01,2013-07-10 22:06:00,
2013-07-10 18:11:00,78.5,75.3,29.81,WNW,301,0.0,0.0,90,0.00,,---,0.15,77.00,VWS V14.01,2013-07-10 22:11:00,
2013-07-10 18:16:00,78.6,75.8,29.82,WNW,301,0.0,0.0,91,0.00,,---,0.15,67.00,VWS V14.01,2013-07-10 22:16:00,
2013-07-10 18:21:00,78.5,75.7,29.82,WNW,301,0.0,0.0,91,0.00,,---,0.15,69.00,VWS V14.01,2013-07-10 22:21:00,
2013-07-10 18:26:00,78.5,75.7,29.82,WNW,301,0.0,0.0,91,0.00,,---,0.15,65.00,VWS V14.01,2013-07-10 22:26:00,
2013-07-10 18:30:00,78.4,75.6,29.82,WNW,301,0.0,0.0,91,0.00,,---,0.15,67.00,VWS V14.01,2013-07-10 22:30:00,
2013-07-10 18:31:00,78.4,75.6,29.82,WNW,301,0.0,0.0,91,0.00,,---,0.15,67.00,VWS V14.01,2013-07-10 22:31:00,
2013-07-10 18:36:00,78.4,75.6,29.82,WNW,301,0.0,2.0,91,0.00,,---,0.15,49.00,VWS V14.01,2013-07-10 22:36:00,
2013-07-10 18:41:00,78.3,75.5,29.83,NW,309,0.0,4.0,91,0.00,,---,0.15,44.00,VWS V14.01,2013-07-10 22:41:00,
2013-07-10 18:46:00,78.2,75.0,29.83,NW,309,0.0,4.0,90,0.00,,---,0.15,46.00,VWS V14.01,2013-07-10 22:46:00,
2013-07-10 18:51:00,77.9,74.4,29.83,NW,309,0.0,4.0,89,0.00,,---,0.15,49.00,VWS V14.01,2013-07-10 22:51:00,
2013-07-10 18:56:00,77.8,74.3,29.83,NW,309,0.0,4.0,89,0.00,,---,0.15,53.00,VWS V14.01,2013-07-10 22:56:00,
2013-07-10 19:00:00,77.6,74.1,29.83,NW,309,0.0,4.0,89,0.00,,---,0.15,63.00,VWS V14.01,2013-07-10 23:00:00,
2013-07-10 19:01:00,77.6,74.1,29.83,NW,309,0.0,0.0,89,0.00,,---,0.15,67.00,VWS V14.01,2013-07-10 23:01:00,
2013-07-10 19:06:00,77.5,74.0,29.83,NW,309,0.0,0.0,89,0.00,,---,0.15,83.00,VWS V14.01,2013-07-10 23:06:00,
2013-07-10 19:11:00,77.5,74.0,29.82,NW,309,0.0,3.0,89,0.00,,---,0.15,90.00,VWS V14.01,2013-07-10 23:11:00,
2013-07-10 19:16:00,77.5,74.0,29.83,NW,309,0.0,3.0,89,0.00,,---,0.15,84.00,VWS V14.01,2013-07-10 23:16:00,
2013-07-10 19:21:00,77.5,74.0,29.83,NW,309,0.0,3.0,89,0.00,,---,0.15,77.00,VWS V14.01,2013-07-10 23:21:00,
2013-07-10 19:26:00,77.5,74.3,29.83,NW,309,0.0,3.0,90,0.00,,---,0.15,60.00,VWS V14.01,2013-07-10 23:26:00,
2013-07-10 19:30:00,77.5,74.0,29.83,NW,309,0.0,3.0,89,0.00,,---,0.15,42.00,VWS V14.01,2013-07-10 23:30:00,
2013-07-10 19:31:00,77.5,74.0,29.83,NW,309,0.0,0.0,89,0.00,,---,0.15,39.00,VWS V14.01,2013-07-10 23:31:00,
2013-07-10 19:36:00,77.4,73.9,29.83,NW,309,0.0,0.0,89,0.00,,---,0.15,28.00,VWS V14.01,2013-07-10 23:36:00,
2013-07-10 19:41:00,77.3,74.1,29.83,NW,309,0.0,0.0,90,0.00,,---,0.15,26.00,VWS V14.01,2013-07-10 23:41:00,
2013-07-10 19:46:00,77.1,73.9,29.83,NW,309,0.0,0.0,90,0.00,,---,0.15,23.00,VWS V14.01,2013-07-10 23:46:00,
2013-07-10 19:51:00,76.9,74.1,29.83,NW,309,0.0,1.0,91,0.00,,---,0.15,19.00,VWS V14.01,2013-07-10 23:51:00,
2013-07-10 19:56:00,76.8,74.0,29.84,NW,309,0.0,1.0,91,0.00,,---,0.15,18.00,VWS V14.01,2013-07-10 23:56:00,
2013-07-10 20:00:00,76.7,73.9,29.84,NW,309,0.0,1.0,91,0.00,,---,0.15,16.00,VWS V14.01,2013-07-11 00:00:00,
2013-07-10 20:01:00,76.6,73.8,29.84,NW,309,0.0,0.0,91,0.00,,---,0.15,16.00,VWS V14.01,2013-07-11 00:01:00,
2013-07-10 20:06:00,76.5,74.0,29.84,NW,309,0.0,0.0,92,0.00,,---,0.15,11.00,VWS V14.01,2013-07-11 00:06:00,
2013-07-10 20:11:00,76.4,73.9,29.83,West,272,0.0,0.0,92,0.00,,---,0.15,9.00,VWS V14.01,2013-07-11 00:11:00,
2013-07-10 20:16:00,76.3,73.8,29.83,West,272,0.0,0.0,92,0.00,,---,0.15,5.00,VWS V14.01,2013-07-11 00:16:00,
2013-07-10 20:21:00,76.2,73.7,29.83,West,272,0.0,0.0,92,0.00,,---,0.15,0.00,VWS V14.01,2013-07-11 00:21:00,
2013-07-10 20:26:00,76.0,73.5,29.83,West,272,0.0,0.0,92,0.00,,---,0.15,0.00,VWS V14.01,2013-07-11 00:26:00,
2013-07-10 20:30:00,75.9,73.7,29.83,West,272,0.0,0.0,93,0.00,,---,0.15,0.00,VWS V14.01,2013-07-11 00:30:00,
2013-07-10 20:31:00,75.9,73.7,29.83,West,272,0.0,0.0,93,0.00,,---,0.15,0.00,VWS V14.01,2013-07-11 00:31:00,
2013-07-10 20:36:00,75.8,73.6,29.83,West,272,0.0,0.0,93,0.00,,---,0.15,0.00,VWS V14.01,2013-07-11 00:36:00,
2013-07-10 20:41:00,75.7,73.5,29.83,West,272,0.0,1.0,93,0.00,,---,0.15,0.00,VWS V14.01,2013-07-11 00:41:00,
2013-07-10 20:46:00,75.7,73.5,29.83,West,272,0.0,1.0,93,0.00,,---,0.15,0.00,VWS V14.01,2013-07-11 00:46:00,
2013-07-10 20:51:00,75.6,73.4,29.83,West,272,0.0,1.0,93,0.00,,---,0.15,0.00,VWS V14.01,2013-07-11 00:51:00,
2013-07-10 20:56:00,75.5,73.3,29.83,West,272,0.0,1.0,93,0.00,,---,0.15,0.00,VWS V14.01,2013-07-11 00:56:00,
2013-07-10 21:00:00,75.5,73.3,29.83,West,272,0.0,1.0,93,0.00,,---,0.15,0.00,VWS V14.01,2013-07-11 01:00:00,
2013-07-10 21:01:00,75.5,73.3,29.83,West,272,0.0,0.0,93,0.00,,---,0.15,0.00,VWS V14.01,2013-07-11 01:01:00,
2013-07-10 21:06:00,75.4,73.2,29.83,West,272,0.0,0.0,93,0.00,,---,0.15,0.00,VWS V14.01,2013-07-11 01:06:00,
2013-07-10 21:11:00,75.3,73.1,29.83,West,272,0.0,0.0,93,0.00,,---,0.15,0.00,VWS V14.01,2013-07-11 01:11:00,
2013-07-10 21:16:00,75.3,73.1,29.84,West,272,0.0,0.0,93,0.00,,---,0.15,0.00,VWS V14.01,2013-07-11 01:16:00,
2013-07-10 21:21:00,75.3,73.1,29.84,West,272,0.0,0.0,93,0.00,,---,0.15,0.00,VWS V14.01,2013-07-11 01:21:00,
2013-07-10 21:26:00,75.2,73.0,29.84,West,272,0.0,0.0,93,0.00,,---,0.15,0.00,VWS V14.01,2013-07-11 01:26:00,
2013-07-10 21:30:00,75.3,73.1,29.84,West,272,0.0,0.0,93,0.00,,---,0.15,0.00,VWS V14.01,2013-07-11 01:30:00,
2013-07-10 21:31:00,75.3,73.1,29.84,West,272,0.0,0.0,93,0.00,,---,0.15,0.00,VWS V14.01,2013-07-11 01:31:00,
2013-07-10 21:36:00,75.2,73.0,29.84,West,272,0.0,0.0,93,0.00,,---,0.15,0.00,VWS V14.01,2013-07-11 01:36:00,
2013-07-10 21:41:00,75.2,73.0,29.84,West,272,0.0,1.0,93,0.00,,---,0.15,0.00,VWS V14.01,2013-07-11 01:41:00,
2013-07-10 21:46:00,75.2,73.0,29.84,West,272,0.0,2.0,93,0.00,,---,0.15,0.00,VWS V14.01,2013-07-11 01:46:00,
2013-07-10 21:51:00,75.3,73.1,29.84,West,272,0.0,2.0,93,0.00,,---,0.15,0.00,VWS V14.01,2013-07-11 01:51:00,
2013-07-10 21:56:00,75.2,73.0,29.85,West,272,0.0,2.0,93,0.00,,---,0.15,0.00,VWS V14.01,2013-07-11 01:56:00,
2013-07-10 22:00:00,75.1,72.9,29.85,West,272,0.0,2.0,93,0.00,,---,0.15,0.00,VWS V14.01,2013-07-11 02:00:00,
2013-07-10 22:01:00,75.1,72.9,29.85,West,272,0.0,0.0,93,0.00,,---,0.15,0.00,VWS V14.01,2013-07-11 02:01:00,
2013-07-10 22:06:00,75.1,72.9,29.85,West,272,0.0,3.0,93,0.00,,---,0.15,0.00,VWS V14.01,2013-07-11 02:06:00,
2013-07-10 22:11:00,75.0,72.8,29.85,West,272,0.0,3.0,93,0.00,,---,0.15,0.00,VWS V14.01,2013-07-11 02:11:00,
2013-07-10 22:16:00,75.0,72.8,29.85,West,272,0.0,3.0,93,0.00,,---,0.15,0.00,VWS V14.01,2013-07-11 02:16:00,
2013-07-10 22:21:00,75.0,72.8,29.85,West,272,0.0,3.0,93,0.00,,---,0.15,0.00,VWS V14.01,2013-07-11 02:21:00,
2013-07-10 22:26:00,74.9,72.7,29.85,West,272,0.0,3.0,93,0.00,,---,0.15,0.00,VWS V14.01,2013-07-11 02:26:00,
2013-07-10 22:30:00,74.9,72.7,29.84,West,272,0.0,3.0,93,0.00,,---,0.15,0.00,VWS V14.01,2013-07-11 02:30:00,
2013-07-10 22:31:00,74.9,72.7,29.84,West,272,0.0,0.0,93,0.00,,---,0.15,0.00,VWS V14.01,2013-07-11 02:31:00,
2013-07-10 22:36:00,74.8,72.6,29.84,West,272,0.0,3.0,93,0.00,,---,0.15,0.00,VWS V14.01,2013-07-11 02:36:00,
2013-07-10 22:41:00,74.7,72.6,29.85,West,272,0.0,3.0,93,0.00,,---,0.15,0.00,VWS V14.01,2013-07-11 02:41:00,
2013-07-10 22:46:00,74.6,72.4,29.85,West,272,0.0,3.0,93,0.00,,---,0.15,0.00,VWS V14.01,2013-07-11 02:46:00,
2013-07-10 22:51:00,74.6,72.4,29.84,West,272,0.0,3.0,93,0.00,,---,0.15,0.00,VWS V14.01,2013-07-11 02:51:00,
2013-07-10 22:56:00,74.6,72.4,29.85,West,272,0.0,3.0,93,0.00,,---,0.15,0.00,VWS V14.01,2013-07-11 02:56:00,
2013-07-10 23:00:00,74.5,72.3,29.84,West,278,0.0,4.0,93,0.00,,---,0.15,0.00,VWS V14.01,2013-07-11 03:00:00,
2013-07-10 23:01:00,74.6,72.4,29.84,West,278,0.0,0.0,93,0.00,,---,0.15,0.00,VWS V14.01,2013-07-11 03:01:00,
2013-07-10 23:06:00,74.5,72.3,29.85,West,278,0.0,0.0,93,0.00,,---,0.15,0.00,VWS V14.01,2013-07-11 03:06:00,
2013-07-10 23:11:00,74.4,72.2,29.84,West,278,0.0,0.0,93,0.00,,---,0.15,0.00,VWS V14.01,2013-07-11 03:11:00,
2013-07-10 23:16:00,74.3,72.2,29.84,West,278,0.0,0.0,93,0.00,,---,0.15,0.00,VWS V14.01,2013-07-11 03:16:00,
2013-07-10 23:21:00,74.2,72.1,29.84,West,278,0.0,0.0,93,0.00,,---,0.15,0.00,VWS V14.01,2013-07-11 03:21:00,
2013-07-10 23:26:00,74.1,71.9,29.84,West,278,0.0,0.0,93,0.00,,---,0.15,0.00,VWS V14.01,2013-07-11 03:26:00,
2013-07-10 23:30:00,74.0,72.2,29.83,West,278,0.0,2.0,94,0.00,,---,0.15,0.00,VWS V14.01,2013-07-11 03:30:00,
2013-07-10 23:31:00,74.0,72.2,29.83,West,278,0.0,0.0,94,0.00,,---,0.15,0.00,VWS V14.01,2013-07-11 03:31:00,
2013-07-10 23:36:00,73.9,72.1,29.83,West,278,0.0,0.0,94,0.00,,---,0.15,0.00,VWS V14.01,2013-07-11 03:36:00,
2013-07-10 23:41:00,73.8,72.0,29.83,West,278,0.0,2.0,94,0.00,,---,0.15,0.00,VWS V14.01,2013-07-11 03:41:00,
2013-07-10 23:46:00,73.9,72.1,29.83,WNW,288,0.0,5.0,94,0.00,,---,0.15,0.00,VWS V14.01,2013-07-11 03:46:00,
2013-07-10 23:51:00,73.9,71.8,29.83,WNW,288,0.0,5.0,93,0.00,,---,0.15,0.00,VWS V14.01,2013-07-11 03:51:00,
2013-07-10 23:56:00,74.0,71.8,29.83,WNW,288,0.0,5.0,93,0.00,,---,0.15,0.00,VWS V14.01,2013-07-11 03:56:00,